Regional Weather Roundup
Issued by NWS

Home | Current Version | Previous Version | Text Only | Print | Product List | Glossary On
Versions: 1 2 3 4 5 6 7 8 9 10 11 12 13 14 15 16 17 18 19 20 21 22 23 24 25 26 27 28 29 30 31 32 33 34 35 36 37 38 39 40 41 42 43 44 45 46 47 48 49 50
000
ASUS43 KDMX 231701
RWRIA

WEATHER ROUNDUP FOR IOWA
NATIONAL WEATHER SERVICE DES MOINES IA
1200 PM CDT THU MAR 23 2017

NOTE: "FAIR" INDICATES FEW OR NO CLOUDS BELOW 12,000 FEET WITH NO
SIGNIFICANT WEATHER AND/OR OBSTRUCTIONS TO VISIBILITY.

* - THESE STATIONS ARE NOT NWS STATIONS...THUS NOT UNDER NWS
QUALITY CONTROL.  THEY ALSO DO NOT REPORT WEATHER SUCH
AS PRECIPITATION OR FOG.

IAZ001>003-012>014-020>022-031>034-043>046-231800-
   NORTHWEST IOWA

CITY           SKY/WX    TMP DP  RH WIND       PRES   REMARKS
CARROLL *      CLOUDY    50  36  57 SE25      29.93F
DENISON *      CLOUDY    50  36  57 SE22G31   29.88F
SIOUX CITY     CLOUDY    50  36  58 SE16      29.87
SPENCER        CLOUDY    42  26  53 S13       29.97S
STORM LAKE *   CLOUDY    45  28  53 SE26G32   29.91F
$$

IAZ055>058-069>071-079>083-090>094-231800-
   SOUTHWEST IOWA

CITY           SKY/WX    TMP DP  RH WIND       PRES   REMARKS
ATLANTIC *     CLOUDY    52  34  50 SE18G28   29.93F
AUDUBON *      CLOUDY    50  36  57 SE17G24   29.94F
CLARINDA *     SUNNY     57  37  47 S18G26    29.96F
COUNCIL BLFS * CLOUDY    55  36  47 SE22G30   29.89F
CRESTON *      PTSUNNY   48  34  57 SE23G29   29.98F
HARLAN  *      CLOUDY    52  36  54 S16G26    29.94F
LAMONI         MOSUNNY   50  34  54 SE20G26   30.02F
RED OAK *      MOSUNNY   55  36  47 SE22      29.91F
$$

IAZ047>049-059>061-072>074-084-231800-
   CENTRAL IOWA

CITY           SKY/WX    TMP DP  RH WIND       PRES   REMARKS
AMES           CLOUDY    42  28  57 SE21G29   30.04F
ANKENY *       CLOUDY    43  28  56 SE15G23   30.05F
BOONE *        CLOUDY    43  27  52 SE23G29   30.01F
CHARITON *     CLOUDY    43  34  70 SE17G25   30.05F
DES MOINES     CLOUDY    46  30  53 SE17      30.05F
GRINNELL*      CLOUDY    39  29  66 SE20      30.11F WCI  30
MARSHALLTOWN   CLOUDY    40  26  57 SE23G31   30.07F WCI  30
PERRY *        CLOUDY    45  31  59 SE21G26   30.00F
$$

IAZ004>006-015-016-023>025-035-036-231800-
   NORTH CENTRAL IOWA

CITY           SKY/WX    TMP DP  RH WIND       PRES   REMARKS
ALGONA *       CLOUDY    41  28  60 SE22      29.98F
CLARION *      CLOUDY    39  27  60 SE20G28   30.04S WCI  30
ESTHERVILLE    CLOUDY    37  28  70 SE18      29.94F WCI  27
FORT DODGE *   CLOUDY    43  27  52 SE15      30.01F
MASON CITY     CLOUDY    37  26  64 SE22G31   30.06F WCI  26
WEBSTER CITY * CLOUDY    43  27  52 SE21      30.00F
IOWA FALLS *   CLOUDY    40  26  56 SE20      30.06F WCI  31
$$

IAZ007>011-017>019-026>030-037>042-050>054-066-231800-
   NORTHEAST IOWA

CITY           SKY/WX    TMP DP  RH WIND       PRES   REMARKS
CEDAR RAPIDS   CLOUDY    39  28  64 S17G24    30.15F WCI  30
CHARLES CITY * CLOUDY    37  25  60 SE23G29   30.09F WCI  26
CLINTON *      CLOUDY    40  25  55 SE21      30.25F WCI  30
DECORAH *      CLOUDY    39  23  52 S15G25    30.11F WCI  31
DUBUQUE        CLOUDY    39  24  55 S23G30    30.19F WCI  28
WATERLOO       CLOUDY    39  25  57 SE18G31   30.10F WCI  30
$$

IAZ064-065-067-068-078-231800-
   EAST CENTRAL IOWA

CITY           SKY/WX    TMP DP  RH WIND       PRES   REMARKS
DAVENPORT      CLOUDY    40  26  57 S17       30.23F WCI  31
IOWA CITY      CLOUDY    41  31  67 S16G23    30.20F
QUAD CITIES    CLOUDY    41  26  55 SE18      30.23F
$$

IAZ062-063-075>077-085>089-095>099-231800-
   SOUTHEAST IOWA

CITY           SKY/WX    TMP DP  RH WIND       PRES   REMARKS
BURLINGTON     CLOUDY    37  36  96 SE14      30.20F WCI  28
FAIRFIELD *    CLOUDY    37  32  81 SE21      30.15F HAZE    WCI  27
FORT MADISON * LGT RAIN  37  34  87 SE13      30.20F WCI  29
KEOKUK *       CLOUDY    37  36  93 SE15G23   30.18F WCI  28
OTTUMWA        CLOUDY    41  31  67 SE18      30.13F
WASHINGTON *   CLOUDY    39  32  75 SE21G28   30.18F WCI  29
$$

ABBREVIATIONS USED IN REMARKS
   TC - TEMPERATURES IN CELSIUS
  WCI - WIND CHILL INDEX
   HX - HEAT INDEX
  VSB - VISIBILITY
$$




USA.gov is the U.S. government's official web portal to all federal, state and local government web resources and services.